Regional Weather Roundup
Issued by NWS Newport/Morehead, NC

Home | Current Version | Previous Version | Text Only | Print | Product List | Glossary On
Versions: 1 2 3 4 5 6 7 8 9 10 11 12 13 14 15 16 17 18 19 20 21 22 23 24 25 26 27 28 29 30 31 32 33 34 35 36 37 38 39 40 41 42 43 44 45 46 47 48 49 50
000
ASUS42 KMHX 301925
RWRMHX
WEATHER ROUNDUP FOR EASTERN NORTH CAROLINA
NATIONAL WEATHER SERVICE NEWPORT/MOREHEAD CITY NC
300 PM EDT THU JUN 30 2016

NOTE: "FAIR" INDICATES FEW OR NO CLOUDS BELOW 12,000 FEET
WITH NO SIGNIFICANT WEATHER AND/OR OBSTRUCTIONS TO VISIBILITY

NCZ015>017-031-032-045>047-102-103-302000-
NORTH COAST

CITY           SKY/WX    TMP DP  RH WIND       PRES   REMARKS
EDENTON        MOSUNNY   87  67  52 SW6       30.01F
ELIZABETH CITY PTSUNNY   82  74  76 E9        30.02F
KITTY HAWK     CLOUDY    85  74  70 SE5       30.01F
MANTEO         CLOUDY    85  75  72 S14       30.02F

$$

NCZ045>047-081-094-103-104-302000-
CENTRAL COAST

CITY           SKY/WX    TMP DP  RH WIND       PRES   REMARKS
FRISCO         LGT RAIN  77  70  79 S12       30.04S

$$

NCZ095-097-098-100-101-302000-
SOUTHERN COAST

CITY           SKY/WX    TMP DP  RH WIND       PRES   REMARKS
BEAUFORT       MOSUNNY   82  75  79 S9        30.02S
CEDAR ISLAND   NOT AVBL
JACKSONVILLE   PTSUNNY   86  72  62 SE10      30.00S
PINEY ISLAND   CLOUDY   N/A N/A N/A SE13G18   30.01F
WILMINGTON     SUNNY     85  72  65 SE8       30.00F


$$

NCZ011>013-027>030-043-044-078>080-089-090>093-098-302000-
COASTAL PLAIN

CITY           SKY/WX    TMP DP  RH WIND       PRES   REMARKS
AHOSKIE        SUNNY     84  70  64 S6        30.01S
CLINTON        MOSUNNY   91  69  48 SE3       29.99F
ELIZABETHTOWN  PTSUNNY   91  67  44 S6        29.99S
GOLDSBORO      MOSUNNY   89  69  50 S8        29.98F
GREENVILLE     MOSUNNY   88  72  58 SE3       30.01F
HAVELOCK       PTSUNNY   88  70  55 S9        30.01F
KENANSVILLE    PTSUNNY   88  66  47 CALM      29.99F
KINSTON        PTSUNNY   88  68  51 SE5       30.00F
NEW BERN       CLOUDY    83  70  64 S8        30.01F
RICHLANDS      MOSUNNY   87  74  64 S10       30.00F
ROCKY MOUNT    PTSUNNY   86  69  56 S6        30.00F
WASHINGTON     MOSUNNY   86  72  64 E7        29.99F
WHITEVILLE     PTSUNNY   89  73  60 S5        29.98S

$$

AMZ130-135-150-152-154-156-158-170-250-252-270-ANZ085-086-088-633-658-670-302000-
MARINE OBSERVATIONS

STATION/POSITION TIME  TEMP    WIND        PRES    WAVE   SWELL
                       AIR SEA DIR/SP/G            HT/PER HT/PER
                 (UTC) (F)     (DEG/KT/KT) (MB)    (FT/S) (FT/S)
CHESAPEAKE LIGHT NOT AVBL
64 E VA BEACH    1850   77 76  130/  6/  8 1017.0    2/ 7   2/ 7
DUCK             1900   80 74  130/  8/  8 1015.8
2 E DUCK         1811      77                N/A     2/ 9
OREGON INLET     1900   82 80  140/ 11/ 19 1016.4
13E OREGON INLT  1900      78                N/A     2/ 7   2/ 7
HATTERAS CG      1900   75 81  130/ 15/ 21 1016.6
DIAMOND BUOY     1850   81 83  140/ 12/ 16 1016.6    3/ 8   2/ 8
CAPE LOOKOUT     1900   81     200/  7/  9 1016.3
BEAUFORT LAB     1900   81 80  190/  9/ 10 1015.8
30 SE NEW RVR IN 1908   80 81  190/  6/ 10 1016.4
30 SE NEW RVR IN 1825      81                N/A     2/ 5
27 SE WRIGHTSVLE 1908      81  210/  8/ 12 1015.7
5 SE WRIGHTSVLE  1908   81 82  200/ 10/ 12 1016.6
225 S CAPE HAT   1850   74 79   CALM  /  2 1019.1    4/ 6   3/ 6
41 SE CHARLESTON 1850   81 82  150/  8/ 10 1015.7    3/ 5   2/ 5

$$




USA.gov is the U.S. government's official web portal to all federal, state and local government web resources and services.